Time,TemperatureF,DewpointF,PressureIn,WindDirection,WindDirectionDegrees,WindSpeedMPH,WindSpeedGustMPH,Humidity,HourlyPrecipIn,Conditions,Clouds,dailyrainin,SoftwareType,DateUTC
2013-10-26 00:14:00,36.0,28.0,-100.00,ENE,60,1.0,3.0,73,0.00,,,-99.99,,2013-10-26 04:14:00,
2013-10-26 00:24:00,36.0,28.0,-100.00,NE,40,1.0,3.0,72,0.00,,,-99.99,,2013-10-26 04:24:00,
2013-10-26 00:34:00,36.0,28.0,-100.00,NE,40,1.0,3.0,72,0.00,,,-99.99,,2013-10-26 04:34:00,
2013-10-26 00:54:00,36.0,28.0,-100.00,NE,55,1.0,3.0,71,0.00,,,-99.99,,2013-10-26 04:54:00,
2013-10-26 01:13:00,36.0,28.0,-100.00,NE,55,1.0,4.0,71,0.00,,,-99.99,,2013-10-26 05:13:00,
2013-10-26 01:23:00,36.0,27.0,-100.00,North,5,1.0,3.0,70,0.00,,,-99.99,,2013-10-26 05:23:00,
2013-10-26 01:34:00,36.0,27.0,-100.00,North,5,1.0,3.0,70,0.00,,,-99.99,,2013-10-26 05:34:00,
2013-10-26 01:52:00,35.0,27.0,-100.00,NE,50,1.0,4.0,71,0.00,,,-99.99,,2013-10-26 05:52:00,
2013-10-26 02:12:00,35.0,27.0,-100.00,NE,45,1.0,4.0,70,0.00,,,-99.99,,2013-10-26 06:12:00,
2013-10-26 02:42:00,34.0,27.0,-100.00,NE,55,1.0,3.0,74,0.00,,,-99.99,,2013-10-26 06:42:00,
2013-10-26 03:22:00,31.0,27.0,-100.00,North,0,0.0,1.0,84,0.00,,,-99.99,,2013-10-26 07:22:00,
2013-10-26 03:42:00,31.0,27.0,-100.00,SSW,205,0.0,1.0,84,0.00,,,-99.99,,2013-10-26 07:42:00,
2013-10-26 03:52:00,32.0,27.0,-100.00,North,355,0.0,2.0,79,0.00,,,-99.99,,2013-10-26 07:52:00,
2013-10-26 04:02:00,32.0,27.0,-100.00,North,355,0.0,2.0,79,0.00,,,-99.99,,2013-10-26 08:02:00,
2013-10-26 04:22:00,32.0,26.0,-100.00,East,85,0.0,2.0,78,0.00,,,-99.99,,2013-10-26 08:22:00,
2013-10-26 04:42:00,32.0,26.0,-100.00,NNW,330,0.0,3.0,79,0.00,,,-99.99,,2013-10-26 08:42:00,
2013-10-26 05:22:00,33.0,26.0,-100.00,NNE,25,1.0,4.0,73,0.00,,,-99.99,,2013-10-26 09:22:00,
2013-10-26 05:43:00,34.0,26.0,-100.00,NE,35,2.0,6.0,71,0.00,,,-99.99,,2013-10-26 09:43:00,
2013-10-26 05:53:00,34.0,26.0,-100.00,NNE,20,3.0,6.0,70,0.00,,,-99.99,,2013-10-26 09:53:00,
2013-10-26 06:03:00,34.0,26.0,-100.00,NNE,20,3.0,6.0,70,0.00,,,-99.99,,2013-10-26 10:03:00,
2013-10-26 06:23:00,34.0,26.0,-100.00,NE,35,4.0,5.0,71,0.00,,,-99.99,,2013-10-26 10:23:00,
2013-10-26 06:42:00,34.0,26.0,-100.00,NNE,15,2.0,6.0,71,0.00,,,-99.99,,2013-10-26 10:42:00,
2013-10-26 06:53:00,34.0,26.0,-100.00,North,0,2.0,6.0,72,0.00,,,-99.99,,2013-10-26 10:53:00,
2013-10-26 07:03:00,34.0,26.0,-100.00,North,0,2.0,6.0,72,0.00,,,-99.99,,2013-10-26 11:03:00,
2013-10-26 07:22:00,33.0,26.0,-100.00,NNE,30,3.0,7.0,73,0.00,,,-99.99,,2013-10-26 11:22:00,
2013-10-26 07:42:00,33.0,26.0,-100.00,North,5,3.0,9.0,74,0.00,,,-99.99,,2013-10-26 11:42:00,
2013-10-26 07:52:00,33.0,26.0,-100.00,NE,45,4.0,7.0,74,0.00,,,-99.99,,2013-10-26 11:52:00,
2013-10-26 08:01:00,33.0,26.0,-100.00,NE,45,4.0,7.0,74,0.00,,,-99.99,,2013-10-26 12:01:00,
2013-10-26 08:22:00,33.0,26.0,-100.00,NE,35,3.0,7.0,73,0.00,,,-99.99,,2013-10-26 12:22:00,
2013-10-26 08:42:00,34.0,26.0,-100.00,NNE,20,3.0,7.0,71,0.00,,,-99.99,,2013-10-26 12:42:00,
2013-10-26 08:52:00,35.0,26.0,-100.00,NNE,20,2.0,7.0,68,0.00,,,-99.99,,2013-10-26 12:52:00,
2013-10-26 09:01:00,35.0,26.0,-100.00,NNE,20,2.0,7.0,68,0.00,,,-99.99,,2013-10-26 13:01:00,
2013-10-26 09:22:00,36.0,26.0,-100.00,North,0,3.0,7.0,65,0.00,,,-99.99,,2013-10-26 13:22:00,
2013-10-26 09:42:00,37.0,26.0,-100.00,North,0,9.0,16.0,62,0.00,,,-99.99,,2013-10-26 13:42:00,
2013-10-26 09:52:00,38.0,26.0,-100.00,NNE,20,9.0,16.0,60,0.00,,,-99.99,,2013-10-26 13:52:00,
2013-10-26 10:02:00,38.0,26.0,-100.00,NNE,20,9.0,16.0,60,0.00,,,-99.99,,2013-10-26 14:02:00,
2013-10-26 10:22:00,39.0,26.0,-100.00,NNE,30,7.0,18.0,58,0.00,,,-99.99,,2013-10-26 14:22:00,
2013-10-26 10:42:00,40.0,26.0,-100.00,North,0,9.0,19.0,57,0.00,,,-99.99,,2013-10-26 14:42:00,
2013-10-26 10:52:00,42.0,26.0,-100.00,North,0,7.0,19.0,53,0.00,,,-99.99,,2013-10-26 14:52:00,
2013-10-26 11:02:00,42.0,26.0,-100.00,North,0,7.0,19.0,53,0.00,,,-99.99,,2013-10-26 15:02:00,
2013-10-26 11:23:00,42.0,26.0,-100.00,North,0,10.0,17.0,51,0.00,,,-99.99,,2013-10-26 15:23:00,
2013-10-26 11:44:00,44.0,25.0,-100.00,NE,40,7.0,19.0,46,0.00,,,-99.99,,2013-10-26 15:44:00,
2013-10-26 11:55:00,45.0,25.0,-100.00,North,0,10.0,21.0,46,0.00,,,-99.99,,2013-10-26 15:55:00,
2013-10-26 12:05:00,45.0,25.0,-100.00,North,0,10.0,21.0,46,0.00,,,-99.99,,2013-10-26 16:05:00,
2013-10-26 12:24:00,45.0,25.0,-100.00,NNE,20,11.0,22.0,44,0.00,,,-99.99,,2013-10-26 16:24:00,
2013-10-26 12:44:00,47.0,26.0,-100.00,North,0,9.0,18.0,43,0.00,,,-99.99,,2013-10-26 16:44:00,
2013-10-26 12:53:00,47.0,24.0,-100.00,NE,45,13.0,27.0,40,0.00,,,-99.99,,2013-10-26 16:53:00,
2013-10-26 13:03:00,47.0,24.0,-100.00,NE,45,13.0,27.0,40,0.00,,,-99.99,,2013-10-26 17:03:00,
2013-10-26 13:23:00,47.0,25.0,-100.00,NE,50,9.0,20.0,41,0.00,,,-99.99,,2013-10-26 17:23:00,
2013-10-26 13:43:00,46.0,23.0,-100.00,NE,50,13.0,18.0,40,0.00,,,-99.99,,2013-10-26 17:43:00,
2013-10-26 13:52:00,47.0,24.0,-100.00,North,350,7.0,12.0,41,0.00,,,-99.99,,2013-10-26 17:52:00,
2013-10-26 14:02:00,47.0,24.0,-100.00,North,350,7.0,12.0,41,0.00,,,-99.99,,2013-10-26 18:02:00,
2013-10-26 14:22:00,47.0,23.0,-100.00,North,0,9.0,20.0,38,0.00,,,-99.99,,2013-10-26 18:22:00,
2013-10-26 14:42:00,48.0,24.0,-100.00,NE,40,7.0,19.0,38,0.00,,,-99.99,,2013-10-26 18:42:00,
2013-10-26 14:52:00,48.0,23.0,-100.00,NNE,20,10.0,19.0,37,0.00,,,-99.99,,2013-10-26 18:52:00,
2013-10-26 15:01:00,48.0,23.0,-100.00,NNE,20,10.0,19.0,37,0.00,,,-99.99,,2013-10-26 19:01:00,
2013-10-26 15:22:00,49.0,23.0,-100.00,North,10,10.0,21.0,35,0.00,,,-99.99,,2013-10-26 19:22:00,
2013-10-26 15:42:00,48.0,22.0,-100.00,NE,35,12.0,22.0,36,0.00,,,-99.99,,2013-10-26 19:42:00,
2013-10-26 15:52:00,48.0,23.0,-100.00,NNE,20,6.0,17.0,37,0.00,,,-99.99,,2013-10-26 19:52:00,
2013-10-26 16:02:00,48.0,23.0,-100.00,NNE,20,6.0,17.0,37,0.00,,,-99.99,,2013-10-26 20:02:00,
2013-10-26 16:22:00,48.0,23.0,-100.00,North,10,13.0,24.0,36,0.00,,,-99.99,,2013-10-26 20:22:00,
2013-10-26 16:43:00,48.0,24.0,-100.00,North,355,6.0,13.0,38,0.00,,,-99.99,,2013-10-26 20:43:00,
2013-10-26 16:52:00,48.0,24.0,-100.00,North,0,7.0,16.0,39,0.00,,,-99.99,,2013-10-26 20:52:00,
2013-10-26 17:02:00,48.0,24.0,-100.00,North,0,7.0,16.0,39,0.00,,,-99.99,,2013-10-26 21:02:00,
2013-10-26 17:22:00,47.0,24.0,-100.00,NE,40,6.0,20.0,39,0.00,,,-99.99,,2013-10-26 21:22:00,
2013-10-26 17:43:00,47.0,24.0,-100.00,NNE,30,10.0,19.0,40,0.00,,,-99.99,,2013-10-26 21:43:00,
2013-10-26 17:54:00,47.0,25.0,-100.00,ENE,60,4.0,12.0,41,0.00,,,-99.99,,2013-10-26 21:54:00,
2013-10-26 18:03:00,47.0,25.0,-100.00,ENE,60,4.0,12.0,41,0.00,,,-99.99,,2013-10-26 22:03:00,
2013-10-26 18:24:00,47.0,26.0,-100.00,NE,35,10.0,21.0,43,0.00,,,-99.99,,2013-10-26 22:24:00,
2013-10-26 18:44:00,47.0,26.0,-100.00,NE,45,6.0,14.0,44,0.00,,,-99.99,,2013-10-26 22:44:00,
2013-10-26 18:53:00,47.0,27.0,-100.00,NE,40,9.0,14.0,45,0.00,,,-99.99,,2013-10-26 22:53:00,
2013-10-26 19:03:00,47.0,27.0,-100.00,NE,40,9.0,14.0,45,0.00,,,-99.99,,2013-10-26 23:03:00,
2013-10-26 19:22:00,47.0,27.0,-100.00,NE,35,10.0,16.0,45,0.00,,,-99.99,,2013-10-26 23:22:00,
2013-10-26 19:42:00,47.0,27.0,-100.00,NE,50,9.0,16.0,46,0.00,,,-99.99,,2013-10-26 23:42:00,
2013-10-26 19:52:00,47.0,27.0,-100.00,NNE,25,8.0,15.0,46,0.00,,,-99.99,,2013-10-26 23:52:00,
2013-10-26 20:02:00,47.0,27.0,-100.00,NNE,25,8.0,15.0,46,0.00,,,-99.99,,2013-10-27 00:02:00,
2013-10-26 20:22:00,47.0,28.0,-100.00,NE,50,9.0,14.0,47,0.00,,,-99.99,,2013-10-27 00:22:00,
2013-10-26 20:42:00,46.0,28.0,-100.00,NNE,30,6.0,12.0,49,0.00,,,-99.99,,2013-10-27 00:42:00,
2013-10-26 20:52:00,46.0,29.0,-100.00,NE,45,5.0,11.0,51,0.00,,,-99.99,,2013-10-27 00:52:00,
2013-10-26 21:02:00,46.0,29.0,-100.00,NE,45,5.0,11.0,51,0.00,,,-99.99,,2013-10-27 01:02:00,
2013-10-26 21:23:00,46.0,29.0,-100.00,NE,35,3.0,11.0,53,0.00,,,-99.99,,2013-10-27 01:23:00,
2013-10-26 21:42:00,46.0,30.0,-100.00,NE,40,8.0,13.0,54,0.00,,,-99.99,,2013-10-27 01:42:00,
2013-10-26 21:52:00,45.0,31.0,-100.00,NE,35,3.0,11.0,56,0.00,,,-99.99,,2013-10-27 01:52:00,
2013-10-26 22:02:00,45.0,31.0,-100.00,NE,35,3.0,11.0,56,0.00,,,-99.99,,2013-10-27 02:02:00,
2013-10-26 22:22:00,45.0,31.0,-100.00,NE,55,4.0,11.0,58,0.00,,,-99.99,,2013-10-27 02:22:00,
2013-10-26 22:42:00,45.0,32.0,-100.00,NE,50,5.0,11.0,59,0.00,,,-99.99,,2013-10-27 02:42:00,
2013-10-26 22:52:00,45.0,33.0,-100.00,North,0,4.0,9.0,61,0.00,,,-99.99,,2013-10-27 02:52:00,
2013-10-26 23:02:00,45.0,33.0,-100.00,North,0,4.0,9.0,61,0.00,,,-99.99,,2013-10-27 03:02:00,
2013-10-26 23:22:00,45.0,33.0,-100.00,NE,45,5.0,9.0,63,0.00,,,-99.99,,2013-10-27 03:22:00,
2013-10-26 23:45:00,45.0,34.0,-100.00,NE,50,2.0,6.0,65,0.00,,,-99.99,,2013-10-27 03:45:00,
2013-10-26 23:54:00,44.0,34.0,-100.00,East,80,2.0,6.0,66,0.00,,,-99.99,,2013-10-27 03:54:00,